Theta_e
306 310 321 324 319 317 315 310 307 306 306 305 305 304 303 302 300 300 299 299 299 298
306 305 310 312 310 307 305 304 304 303 302 301 301 300 300 298 297 296 295 294 295 294
306 305 307 306 304 303 302 301 299 298 298 297 296 296 296 294 293 291 289 288 288 289
301 301 301 301 300 299 297 297 295 294 293 292 291 291 290 288 285 284 284 284 284 284
298 297 296 295 295 295 293 292 291 290 289 288 287 286 285 284 283 283 282 282 282 282
294 293 292 291 291 291 290 288 287 287 286 285 283 283 282 283 282 282 282 282 281 281
292 291 290 289 288 287 287 285 285 284 282 282 282 282 283 282 281 281 281 282 281 281
288 287 287 286 285 284 284 284 283 282 282 281 282 282 281 282 281 281 281 281 281 281
286 285 284 283 283 283 283 281 282 281 281 281 283 285 286 283 281 281 280 279 279 279
284 283 282 281 281 281 280 280 280 280 281 281 282 286 285 283 280 279 278 278 278 278
282 280 279 279 279 279 279 279 279 279 280 280 281 284 283 281 279 277 277 277 277 277
279 278 277 277 277 278 278 277 277 277 276 278 279 282 282 279 277 277 276 276 277 277
278 278 277 277 277 275 277 277 277 276 275 277 278 282 280 278 276 273 274 275 275 278
276 277 277 275 276 275 275 275 273 273 273 275 276 280 281 278 274 272 272 272 272 273
Wind_Speed
2 3 3 7 4 3 3 3 4 5 6 5 5 6 7 4 5 6 5 7 4 5
3 5 4 3 4 4 5 5 6 7 8 7 6 6 7 5 7 7 6 7 6 6
2 2 4 5 7 7 6 7 8 9 8 7 8 6 7 7 7 9 6 5 8 8
4 4 5 6 6 8 7 9 9 9 9 8 8 7 10 9 8 10 8 7 8 8
5 5 6 7 7 7 10 8 10 9 9 8 8 7 9 9 7 9 9 6 8 7
6 6 7 8 8 8 10 10 9 9 10 9 7 9 8 9 9 9 8 8 9 7
6 7 7 7 8 9 9 10 9 9 8 8 7 8 8 9 9 9 8 8 8 7
6 7 7 8 8 9 10 9 9 10 9 7 7 6 8 8 9 9 9 8 8 8
7 7 7 8 9 10 10 9 9 8 9 8 6 15 16 11 8 8 8 8 8 7
8 8 8 9 9 9 9 8 8 8 8 9 7 15 15 15 8 8 7 8 6 5
9 10 8 9 9 9 8 9 8 8 7 8 7 14 15 15 9 8 8 7 6 6
10 11 10 10 10 7 10 8 7 5 6 8 7 12 12 10 6 8 8 8 6 6
9 11 11 11 10 4 8 8 7 8 4 5 6 12 11 9 5 6 5 5 6 10
8 10 10 9 9 9 9 9 7 7 4 5 4 7 11 10 4 4 4 4 3 3
Wind_Direction
254 258 266 212 182 194 162 137 113 105 99 91 84 91 91 79 89 80 88 82 70 79
253 242 224 134 109 108 104 115 114 104 101 91 87 82 96 101 80 78 65 68 69 69
198 144 144 131 126 109 115 101 106 94 89 81 81 78 83 74 69 77 60 62 69 63
104 92 94 98 104 107 105 102 95 87 89 87 88 82 85 84 86 85 77 69 75 69
95 89 92 90 88 98 95 94 99 99 100 95 90 90 97 94 84 86 81 74 71 60
98 96 92 94 96 101 106 98 92 102 100 99 95 95 88 101 103 99 97 94 87 79
108 109 108 105 102 100 99 102 100 98 99 99 104 105 107 102 94 91 92 93 86 78
111 107 107 104 103 102 101 102 100 101 93 92 90 95 104 106 109 107 97 78 82 67
118 119 120 114 112 109 105 98 100 95 99 97 98 115 116 110 100 92 90 95 78 67
134 126 119 115 116 113 106 105 99 96 98 90 92 111 109 101 92 87 84 80 83 78
138 132 127 121 119 116 113 111 110 107 108 102 98 107 108 102 100 103 93 87 80 76
145 137 136 131 129 119 114 106 101 92 94 111 106 116 117 111 107 102 101 90 63 75
146 146 144 136 135 115 117 117 114 101 73 85 112 111 115 115 111 109 108 93 73 57
143 142 137 129 131 129 122 112 106 102 76 66 60 120 120 116 100 112 109 101 84 32